Terug naar catalogus

USA 12

ActiefMilitairGEO
NORAD 16117·PAYLOAD·🇺🇸 United States

Gelanceerd Oct 3, 1985 vanaf Cape Canaveral Space Force Station

Loading…

TLE

VersSource: Space-Track

Epoch: Sep 12, 2026, 17:48 UTC

1 16117U 85092C   26255.74167852 -.00000107  00000-0  00000-0 0  9999
2 16117  14.2478 345.6618 0004437 143.2533 230.0116  0.98988272 26594

Volg USA 12 in realtime met AllMySat

Download on the App Store